Accueil
METAR-TAF:

METAR-TAF

Aéroports :

Aéroport de Colmar - Houssen

Colmar, France

latitude: 48-06-37N, longitude: 7-21-33E, altitude: 191 m

Observation

Le bulletin a été fait il y a 33 minutes, à 21:30 UTC
Vent 3 kt de sud, variant entre sud-est et sud-ouest
Température 13°C
Humidité 77%
Pression 1020 hPa
Visibilité 10 km ou plus

METAR: LFGA 122130Z AUTO 19003KT 140V220 9999 ///TCU 13/09 Q1020

Heure: 23:03 (22:03 UTC)


TAF: absent

Observations et prévisions météorologiques de plus de 4000 aéroports (messages METAR et TAF).

Les stations disponibles sont représentées par des disques jaunes et rouges sur la carte.

Passer la souris dessus pour voir le nom de la station.

Cliquer dessus pour voir les observations et prévisions météorologiques.

Pour changer de carte: cliquez sur les boutons verts avec une croix noire pour zoomer, sur le bouton vert avec un tiret pour effectuer un zoom arrière, ou sur les flèches vertes pour les cartes adjacentes.


METAR-TAF: